Regional Weather Roundup
Issued by NWS

Home | Current Version | Previous Version | Graphics & Text | Print | Product List | Glossary On
Versions: 1 2 3 4 5 6 7 8 9 10 11 12 13 14 15 16 17 18 19 20 21 22 23 24 25 26 27 28 29 30 31 32 33 34 35 36 37 38 39 40 41 42 43 44 45 46 47 48 49 50
000
ASUS43 KLMK 220910
RWRKY
KENTUCKY REGIONAL WEATHER ROUNDUP
NATIONAL WEATHER SERVICE LOUISVILLE KY
500 AM EDT SUN APR 22 2018

NOTE "FAIR" INDICATES FEW OR NO CLOUDS BELOW 12,000 FEET
WITH NO SIGNIFICANT WEATHER AND/OR OBSTRUCTIONS TO VISIBILITY.

KYZ001>023-026-027-061>063-070>075-221000-
WESTERN AND SOUTH CENTRAL KENTUCKY

CITY           SKY/WX    TMP DP  RH WIND       PRES   REMARKS
PADUCAH        LGT RAIN  54  46  74 E7        30.14R
HENDERSON      LGT RAIN  51  45  79 NW6       30.19
OWENSBORO      FAIR      56  31  38 E9        30.18F
HOPKINSVILLE   FAIR      57  40  53 E6        30.13S
BOWLING GREEN  FAIR      55  38  52 E5        30.18F
GLASGOW        FAIR      51  37  58 E3        30.19S
$$

KYZ024-025-028>034-038-045-046-053-221000-
NORTH CENTRAL KENTUCKY

CITY           SKY/WX    TMP DP  RH WIND       PRES   REMARKS
LOUISVILLE/SDF CLOUDY    54  27  35 NE5       30.23S
LOUISVILLE/LOU FAIR      53  29  39 NE6       30.24S
FORT KNOX      CLOUDY    51  28  40 NE8       30.22S
$$

KYZ035>037-039>044-047>052-055>060-089>105-221000-
NORTHEAST KENTUCKY

CITY           SKY/WX    TMP DP  RH WIND       PRES   REMARKS
LEXINGTON      FAIR      48  28  46 NE9       30.24S
COVINGTON      CLOUDY    50  26  39 E7        30.26S
FRANKFORT      FAIR      51  26  37 NE5       30.23S
$$

KYZ054-064>069-076>088-106>120-221000-
SOUTHEAST KENTUCKY

CITY           SKY/WX    TMP DP  RH WIND       PRES   REMARKS
JACKSON        FAIR      52  20  28 VRB3      30.24S
LONDON         FAIR      50  30  46 CALM      30.22F
SOMERSET       FAIR      52  28  40 CALM      30.23S
MIDDLESBORO    FAIR      43  40  86 CALM      30.25F
MONTICELLO     FAIR      46  40  79 N9        30.23S
$$





USA.gov is the U.S. government's official web portal to all federal, state and local government web resources and services.